• In Netherlands
  • List of Countries
  • For 7 days
  • Water Temperature
  • Satellite Maps
  • Weather Map
  • Weather Widgets
  • user-avatar
    Login

    Hourly Weather Zhlobin

    Today, 25 April, Tuesday

    Time Temperature Precipitation Wind Pressure Humidity
    00:00 +1°C° 0 mm 2 mps 749 mmHg 86%
    01:00 +1°C° 0 mm 2 mps 749 mmHg 88%
    02:00 -1°C° 0 mm 2 mps 749 mmHg 90%
    03:00 -1°C° 0 mm 2 mps 749 mmHg 90%
    04:00 -1°C° 0 mm 2 mps 749 mmHg 90%
    05:00 -1°C° 0 mm 2 mps 749 mmHg 90%
    06:00 +2°C° 0 mm 2 mps 749 mmHg 80%
    07:00 +3°C° 0 mm 3 mps 749 mmHg 70%
    08:00 +5°C° 0 mm 3 mps 750 mmHg 59%
    09:00 +6°C° 0 mm 4 mps 749 mmHg 56%
    10:00 +8°C° 0 mm 4 mps 749 mmHg 53%
    11:00 +9°C° 0 mm 5 mps 749 mmHg 50%
    12:00 +10°C° 0 mm 5 mps 749 mmHg 50%
    13:00 +10°C° 0 mm 5 mps 748 mmHg 50%
    14:00 +12°C° 0 mm 5 mps 748 mmHg 50%
    15:00 +12°C° 0 mm 5 mps 748 mmHg 50%
    16:00 +13°C° 0 mm 4 mps 747 mmHg 51%
    17:00 +13°C° 0 mm 4 mps 747 mmHg 52%
    18:00 +12°C° 0 mm 4 mps 747 mmHg 55%
    19:00 +11°C° 0 mm 4 mps 747 mmHg 58%
    20:00 +9°C° 0 mm 5 mps 746 mmHg 61%
    21:00 +9°C° 0 mm 5 mps 746 mmHg 63%
    22:00 +9°C° 0 mm 5 mps 746 mmHg 64%
    23:00 +9°C° 0 mm 5 mps 746 mmHg 66%

    Tomorrow, 26 April, Wednesday

    Time Temperature Precipitation Wind Pressure Humidity
    00:00 +9°C° 0 mm 5 mps 746 mmHg 68%
    01:00 +8°C° 0 mm 5 mps 746 mmHg 71%
    02:00 +8°C° 0 mm 5 mps 746 mmHg 73%
    03:00 +8°C° 0 mm 5 mps 746 mmHg 76%
    04:00 +8°C° 0 mm 4 mps 746 mmHg 80%
    05:00 +7°C° 0 mm 4 mps 745 mmHg 83%
    06:00 +9°C° 0 mm 5 mps 746 mmHg 77%
    07:00 +10°C° 0 mm 5 mps 746 mmHg 72%
    08:00 +11°C° 0 mm 6 mps 746 mmHg 67%
    09:00 +13°C° 0 mm 6 mps 746 mmHg 64%
    10:00 +14°C° 0 mm 7 mps 746 mmHg 61%
    11:00 +15°C° 0 mm 7 mps 746 mmHg 59%
    12:00 +16°C° 0.1 mm 7 mps 746 mmHg 56%
    13:00 +17°C° 0.1 mm 7 mps 746 mmHg 54%
    14:00 +19°C° 0.1 mm 6 mps 746 mmHg 51%
    15:00 +17°C° 0.5 mm 6 mps 746 mmHg 57%
    16:00 +16°C° 0.5 mm 5 mps 746 mmHg 64%
    17:00 +15°C° 0.5 mm 4 mps 746 mmHg 70%
    18:00 +13°C° 0.9 mm 4 mps 747 mmHg 77%
    19:00 +12°C° 0.9 mm 3 mps 747 mmHg 84%
    20:00 +10°C° 0.9 mm 2 mps 747 mmHg 90%
    21:00 +10°C° 0.4 mm 2 mps 748 mmHg 91%
    22:00 +9°C° 0.4 mm 2 mps 748 mmHg 92%
    23:00 +9°C° 0.4 mm 2 mps 748 mmHg 92%

    Day after tomorrow, 27 April, Thursday

    Time Temperature Precipitation Wind Pressure Humidity
    00:00 +9°C° 0.1 mm 2 mps 748 mmHg 92%
    01:00 +8°C° 0.1 mm 2 mps 748 mmHg 92%
    02:00 +8°C° 0.1 mm 2 mps 748 mmHg 92%
    03:00 +8°C° 0.1 mm 3 mps 748 mmHg 91%
    04:00 +8°C° 0.1 mm 3 mps 747 mmHg 91%
    05:00 +8°C° 0.1 mm 3 mps 747 mmHg 91%
    06:00 +8°C° 0 mm 4 mps 747 mmHg 87%
    07:00 +10°C° 0 mm 4 mps 747 mmHg 83%
    08:00 +11°C° 0 mm 4 mps 747 mmHg 79%
    09:00 +12°C° 0 mm 5 mps 747 mmHg 72%
    10:00 +14°C° 0 mm 5 mps 746 mmHg 65%
    11:00 +16°C° 0 mm 5 mps 746 mmHg 58%
    12:00 +17°C° 0 mm 6 mps 746 mmHg 54%
    13:00 +20°C° 0 mm 6 mps 746 mmHg 49%
    14:00 +21°C° 0 mm 7 mps 745 mmHg 45%
    15:00 +20°C° 0.1 mm 5 mps 745 mmHg 52%
    16:00 +18°C° 0.1 mm 4 mps 746 mmHg 60%
    17:00 +16°C° 0.1 mm 3 mps 746 mmHg 68%
    18:00 +14°C° 0.3 mm 3 mps 746 mmHg 74%
    19:00 +14°C° 0.3 mm 2 mps 747 mmHg 81%
    20:00 +13°C° 0.3 mm 2 mps 747 mmHg 87%
    21:00 +12°C° 0.3 mm 2 mps 748 mmHg 89%
    22:00 +10°C° 0.3 mm 2 mps 748 mmHg 91%
    23:00 +10°C° 0.3 mm 2 mps 749 mmHg 94%

    28 April, Friday

    Time Temperature Precipitation Wind Pressure Humidity
    00:00 +9°C° 0.1 mm 2 mps 749 mmHg 94%
    01:00 +8°C° 0.1 mm 2 mps 749 mmHg 94%
    02:00 +8°C° 0.1 mm 2 mps 750 mmHg 93%
    03:00 +7°C° 0.2 mm 3 mps 750 mmHg 94%
    04:00 +7°C° 0.2 mm 3 mps 750 mmHg 94%
    05:00 +7°C° 0.2 mm 3 mps 750 mmHg 94%
    06:00 +7°C° 0.6 mm 3 mps 749 mmHg 94%
    07:00 +7°C° 0.6 mm 3 mps 749 mmHg 93%
    08:00 +8°C° 0.6 mm 3 mps 749 mmHg 93%
    09:00 +9°C° 0.9 mm 3 mps 749 mmHg 89%
    10:00 +10°C° 0.9 mm 3 mps 748 mmHg 86%
    11:00 +11°C° 0.9 mm 3 mps 748 mmHg 82%
    12:00 +13°C° 0 mm 3 mps 748 mmHg 74%
    13:00 +16°C° 0 mm 3 mps 747 mmHg 67%
    14:00 +19°C° 0 mm 4 mps 746 mmHg 59%
    15:00 +19°C° 0 mm 3 mps 746 mmHg 61%
    16:00 +19°C° 0 mm 3 mps 746 mmHg 62%
    17:00 +19°C° 0 mm 3 mps 745 mmHg 64%
    18:00 +18°C° 0 mm 3 mps 745 mmHg 64%
    19:00 +17°C° 0 mm 3 mps 745 mmHg 65%
    20:00 +14°C° 0 mm 4 mps 745 mmHg 66%
    21:00 +14°C° 0 mm 4 mps 745 mmHg 66%
    22:00 +13°C° 0 mm 4 mps 745 mmHg 66%
    23:00 +13°C° 0 mm 4 mps 745 mmHg 66%

    29 April, Saturday

    Time Temperature Precipitation Wind Pressure Humidity
    00:00 +12°C° 0 mm 4 mps 745 mmHg 68%
    01:00 +12°C° 0 mm 4 mps 744 mmHg 70%
    02:00 +12°C° 0 mm 4 mps 744 mmHg 72%
    03:00 +11°C° 0.1 mm 4 mps 744 mmHg 71%
    04:00 +11°C° 0.1 mm 4 mps 744 mmHg 71%
    05:00 +10°C° 0.1 mm 4 mps 743 mmHg 71%
    06:00 +11°C° 0 mm 4 mps 744 mmHg 67%
    07:00 +12°C° 0 mm 5 mps 744 mmHg 64%
    08:00 +13°C° 0 mm 5 mps 744 mmHg 61%
    09:00 +15°C° 0 mm 5 mps 744 mmHg 59%
    10:00 +17°C° 0 mm 4 mps 744 mmHg 58%
    11:00 +18°C° 0 mm 4 mps 745 mmHg 57%
    12:00 +18°C° 0.3 mm 4 mps 745 mmHg 61%
    13:00 +18°C° 0.3 mm 4 mps 745 mmHg 66%
    14:00 +18°C° 0.3 mm 4 mps 745 mmHg 70%
    15:00 +17°C° 0.5 mm 3 mps 745 mmHg 76%
    16:00 +14°C° 0.5 mm 3 mps 746 mmHg 82%
    17:00 +14°C° 0.5 mm 2 mps 746 mmHg 88%
    18:00 +13°C° 0.4 mm 2 mps 747 mmHg 90%
    19:00 +13°C° 0.4 mm 2 mps 747 mmHg 91%
    20:00 +12°C° 0.4 mm 2 mps 748 mmHg 92%
    21:00 +10°C° 0.3 mm 2 mps 748 mmHg 93%
    22:00 +10°C° 0.3 mm 2 mps 748 mmHg 93%
    23:00 +10°C° 0.3 mm 1 mps 748 mmHg 93%

    30 April, Sunday

    Time Temperature Precipitation Wind Pressure Humidity
    00:00 +10°C° 0.5 mm 1 mps 749 mmHg 93%
    01:00 +9°C° 0.5 mm 1 mps 749 mmHg 92%
    02:00 +8°C° 0.5 mm 2 mps 750 mmHg 92%
    03:00 +8°C° 0.6 mm 2 mps 750 mmHg 93%
    04:00 +8°C° 0.6 mm 1 mps 750 mmHg 93%
    05:00 +8°C° 0.6 mm 1 mps 751 mmHg 94%
    06:00 +8°C° 0.4 mm 1 mps 751 mmHg 92%
    07:00 +7°C° 0.4 mm 2 mps 752 mmHg 91%
    08:00 +7°C° 0.4 mm 2 mps 752 mmHg 89%
    09:00 +8°C° 0.1 mm 2 mps 753 mmHg 83%
    10:00 +9°C° 0.1 mm 2 mps 753 mmHg 76%
    11:00 +10°C° 0.1 mm 2 mps 753 mmHg 69%
    12:00 +13°C° 0 mm 2 mps 753 mmHg 61%
    13:00 +14°C° 0 mm 2 mps 753 mmHg 53%
    14:00 +15°C° 0 mm 2 mps 754 mmHg 46%
    15:00 +15°C° 0 mm 1 mps 754 mmHg 47%
    16:00 +15°C° 0 mm 1 mps 754 mmHg 47%
    17:00 +15°C° 0 mm 1 mps 754 mmHg 48%
    18:00 +13°C° 0 mm 1 mps 754 mmHg 55%
    19:00 +11°C° 0 mm 1 mps 754 mmHg 62%
    20:00 +9°C° 0 mm 1 mps 754 mmHg 68%
    21:00 +8°C° 0 mm 1 mps 755 mmHg 71%
    22:00 +8°C° 0 mm 1 mps 755 mmHg 73%
    23:00 +7°C° 0 mm 1 mps 755 mmHg 75%
    Show more